Joliet, IL

4:27 PM CST on February 14, 2016 (GMT -0600)
Joliet Regional

Weather History for KJOT - October, 2012

Change the Weather History Date:

Tuesday, October 9, 2012

  Actual Average (KLOT) Record (KLOT)
Temperature  
Mean Temperature 54 °F 55 °F  
Max Temperature 66 °F 66 °F 88 °F (2010)
Min Temperature 41 °F 45 °F 27 °F (2000)
Degree Days  
Heating Degree Days 12 10  
Month to date heating degree days 81  
Since 1 July heating degree days 180  
Cooling Degree Days 0 1  
Month to date cooling degree days 9  
Year to date cooling degree days 856  
Growing Degree Days 4 (Base 50)    
Moisture  
Dew Point 38 °F    
Average Humidity 60    
Maximum Humidity 95    
Minimum Humidity 33    
Precipitation  
Precipitation 0.22 in 0.11 in 0.45 in (2009)
Month to date precipitation 0.96  
Year to date precipitation 31.91  
Snow  
Snow 0.00 in 0.00 in - ()
Month to date snowfall 0.0  
Since 1 July snowfall 0.0  
Since 1 September snowfall 0.0  
Snow Depth -    
Sea Level Pressure  
Sea Level Pressure 29.92 in    
Wind  
Wind Speed 9 mph (South)    
Max Wind Speed 18 mph    
Max Gust Speed 31 mph    
Visibility 10 miles    
Events Rain    
T = Trace of Precipitation, MM = Missing Value Source: NWS Daily Summary

Daily Weather History Graph

Daily Weather History Graph

Search for Another Location

Airport or City:

Trip Planner

Search our weather history database for the weather conditions in past years. The results will help you decide how hot, cold, wet, or windy it might be!

Date:

Astronomy

Oct. 09, 2012 Rise Set
Actual Time 6:58 AM CDT 6:20 PM CDT
Civil Twilight 6:30 AM CDT 6:48 PM CDT
Nautical Twilight 5:58 AM CDT 7:20 PM CDT
Astronomical Twilight 5:26 AM CDT 7:52 PM CDT
Moon 12:30 AM CDT (10/9) 2:51 PM CDT (10/9)
Length of Visible Light 12h 17m
Length of Day
11h 21m
Last Quarter, 36% of the Moon is Illuminated
Oct 9
Last Quarter
Oct 15
New
Oct 21
First Quarter
Oct 29
Full
Nov 6
Last Quarter

Hourly Weather History & Observations

Time (CDT) Temp. Windchill Dew Point Humidity Pressure Visibility Wind Dir Wind Speed Gust Speed Precip Events Conditions
12:15 AM 49.3 °F - 33.8 °F 55% 30.01 in 10.0 mi South 8.1 mph - N/A   Clear
12:35 AM 48.2 °F - 33.8 °F 58% 30.01 in 10.0 mi South 6.9 mph - N/A   Clear
12:55 AM 48.2 °F - 34.3 °F 59% 30.01 in 10.0 mi South 8.1 mph - N/A   Clear
1:35 AM 46.4 °F 41.9 °F 35.6 °F 66% 30.00 in 10.0 mi South 9.2 mph - N/A   Clear
1:55 AM 46.4 °F 42.4 °F 34.7 °F 64% 30.00 in 10.0 mi South 8.1 mph - N/A   Clear
2:35 AM 45.5 °F 42.5 °F 35.1 °F 67% 29.99 in 10.0 mi South 5.8 mph - N/A   Clear
2:55 AM 45.3 °F 41.6 °F 35.1 °F 67% 29.99 in 10.0 mi South 6.9 mph - N/A   Clear
3:15 AM 45.0 °F 40.6 °F 35.1 °F 68% 29.99 in 10.0 mi South 8.1 mph - N/A   Clear
3:35 AM 45.0 °F 41.2 °F 35.1 °F 68% 29.99 in 10.0 mi South 6.9 mph - N/A   Clear
3:55 AM 44.6 °F 42.2 °F 35.4 °F 70% 29.99 in 10.0 mi South 4.6 mph - N/A   Clear
4:15 AM 43.9 °F 40.5 °F 35.6 °F 73% 29.99 in 10.0 mi South 5.8 mph - N/A   Clear
4:35 AM 43.9 °F 40.5 °F 35.8 °F 73% 29.98 in 10.0 mi South 5.8 mph - N/A   Clear
4:55 AM 44.1 °F 40.8 °F 36.1 °F 74% 29.98 in 10.0 mi South 5.8 mph - N/A   Clear
5:15 AM 43.5 °F 39.4 °F 36.1 °F 75% 29.98 in 10.0 mi South 6.9 mph - N/A   Clear
5:35 AM 43.7 °F 39.7 °F 36.5 °F 76% 29.98 in 10.0 mi South 6.9 mph - N/A   Clear
5:55 AM 44.1 °F 40.1 °F 36.7 °F 75% 29.98 in 10.0 mi South 6.9 mph - N/A   Clear
6:15 AM 44.1 °F 40.1 °F 36.9 °F 76% 29.98 in 10.0 mi South 6.9 mph - N/A   Scattered Clouds
6:35 AM 43.7 °F 38.6 °F 36.9 °F 77% 29.97 in 10.0 mi South 9.2 mph - N/A   Scattered Clouds
6:55 AM 43.5 °F 39.4 °F 36.7 °F 77% 29.97 in 10.0 mi South 6.9 mph - N/A   Clear
7:15 AM 43.2 °F 38.4 °F 36.9 °F 78% 29.97 in 10.0 mi South 8.1 mph - N/A   Clear
7:35 AM 43.9 °F 39.3 °F 37.4 °F 78% 29.97 in 10.0 mi SSE 8.1 mph - N/A   Clear
7:55 AM 45.1 °F 40.3 °F 37.8 °F 75% 29.97 in 10.0 mi SSE 9.2 mph - N/A   Clear
8:15 AM 46.8 °F - 37.9 °F 71% 29.97 in 10.0 mi SSE 11.5 mph 16.1 mph N/A   Clear
8:35 AM 47.8 °F - 38.5 °F 70% 29.97 in 10.0 mi South 12.7 mph 16.1 mph N/A   Clear
8:55 AM 49.1 °F - 38.8 °F 68% 29.96 in 10.0 mi South 10.4 mph 17.3 mph N/A   Clear
9:15 AM 51.1 °F - 39.4 °F 64% 29.96 in 10.0 mi South 9.2 mph 16.1 mph N/A   Clear
9:35 AM 52.5 °F - 39.9 °F 62% 29.95 in 10.0 mi South 12.7 mph 19.6 mph N/A   Clear
9:55 AM 54.9 °F - 39.7 °F 57% 29.94 in 10.0 mi South 9.2 mph 20.7 mph N/A   Clear
10:15 AM 56.8 °F - 39.9 °F 53% 29.94 in 10.0 mi South 10.4 mph 20.7 mph N/A   Clear
10:35 AM 58.5 °F - 39.6 °F 49% 29.93 in 10.0 mi South 15.0 mph 20.7 mph N/A   Clear
10:55 AM 58.8 °F - 39.4 °F 49% 29.93 in 10.0 mi South 13.8 mph 21.9 mph N/A   Clear
11:15 AM 60.4 °F - 40.1 °F 47% 29.93 in 10.0 mi South 15.0 mph 20.7 mph N/A   Clear
11:35 AM 61.7 °F - 39.2 °F 43% 29.91 in 10.0 mi South 16.1 mph 24.2 mph N/A   Clear
11:55 AM 61.9 °F - 39.6 °F 44% 29.91 in 10.0 mi South 13.8 mph 19.6 mph N/A   Clear
12:15 PM 62.6 °F - 39.2 °F 42% 29.90 in 10.0 mi South 15.0 mph 21.9 mph N/A   Clear
12:35 PM 63.5 °F - 39.0 °F 41% 29.88 in 10.0 mi South 17.3 mph 26.5 mph N/A   Clear
12:55 PM 66.4 °F - 37.9 °F 35% 29.86 in 10.0 mi South 18.4 mph 24.2 mph N/A   Clear
1:15 PM 66.4 °F - 36.7 °F 33% 29.86 in 10.0 mi South 18.4 mph 26.5 mph N/A   Clear
1:35 PM 66.0 °F - 36.9 °F 34% 29.86 in 10.0 mi SSW 15.0 mph 23.0 mph N/A   Clear
1:55 PM 65.5 °F - 36.5 °F 34% 29.85 in 10.0 mi SSW 12.7 mph 25.3 mph N/A   Clear
2:15 PM 64.8 °F - 35.6 °F 34% 29.85 in 10.0 mi SSW 18.4 mph 31.1 mph N/A   Clear
2:35 PM 64.4 °F - 36.0 °F 35% 29.85 in 10.0 mi SSW 12.7 mph 25.3 mph N/A   Clear
2:55 PM 64.4 °F - 36.9 °F 36% 29.85 in 10.0 mi South 12.7 mph 23.0 mph N/A   Clear
3:15 PM 64.8 °F - 36.9 °F 36% 29.84 in 10.0 mi South 17.3 mph 24.2 mph N/A   Clear
3:35 PM 63.9 °F - 35.8 °F 35% 29.83 in 10.0 mi South 17.3 mph 26.5 mph N/A   Clear
3:55 PM 64.4 °F - 35.2 °F 34% 29.83 in 10.0 mi SSW 16.1 mph 24.2 mph N/A   Clear
4:15 PM 64.4 °F - 36.1 °F 35% 29.82 in 10.0 mi South 17.3 mph 24.2 mph N/A   Clear
4:35 PM 63.9 °F - 36.9 °F 37% 29.82 in 10.0 mi SSW 12.7 mph 23.0 mph N/A   Clear
4:55 PM 64.0 °F - 37.0 °F 37% 29.82 in 10.0 mi SSW 15.0 mph 23.0 mph N/A   Clear
5:15 PM 63.5 °F - 37.4 °F 38% 29.82 in 10.0 mi SSW 15.0 mph 25.3 mph N/A   Clear
5:35 PM 62.8 °F - 37.9 °F 40% 29.83 in 10.0 mi South 13.8 mph 20.7 mph N/A   Clear
5:55 PM 62.2 °F - 38.1 °F 41% 29.82 in 10.0 mi South 9.2 mph 18.4 mph N/A   Clear
6:15 PM 62.1 °F - 38.5 °F 42% 29.82 in 10.0 mi South 12.7 mph 19.6 mph N/A   Mostly Cloudy
6:35 PM 61.9 °F - 39.2 °F 43% 29.82 in 10.0 mi South 8.1 mph 17.3 mph N/A   Overcast
6:55 PM 61.7 °F - 39.4 °F 44% 29.82 in 10.0 mi South 9.2 mph 16.1 mph N/A   Overcast
7:15 PM 61.2 °F - 39.9 °F 46% 29.82 in 10.0 mi South 9.2 mph - N/A   Overcast
7:35 PM 60.8 °F - 40.1 °F 46% 29.81 in 10.0 mi South 12.7 mph 16.1 mph N/A   Overcast
7:55 PM 57.0 °F - 41.9 °F 57% 29.84 in 10.0 mi West 11.5 mph 21.9 mph N/A   Overcast
8:15 PM 53.1 °F - 41.0 °F 64% 29.86 in 10.0 mi WNW 13.8 mph 24.2 mph N/A   Overcast
8:35 PM 50.4 °F - 39.4 °F 66% 29.89 in 10.0 mi WNW 12.7 mph 31.1 mph N/A   Overcast
8:55 PM 47.1 °F - 39.6 °F 75% 29.90 in 10.0 mi WNW 11.5 mph 23.0 mph N/A Rain Rain
9:15 PM 43.9 °F 40.5 °F 41.5 °F 91% 29.91 in 7.0 mi WNW 5.8 mph 17.3 mph 0.02 in Rain Light Rain
9:35 PM 43.9 °F 41.3 °F 41.5 °F 91% 29.92 in 7.0 mi West 4.6 mph - 0.03 in Rain Light Rain
9:55 PM 43.7 °F 42.1 °F 41.9 °F 93% 29.92 in 7.0 mi WNW 3.5 mph - 0.04 in Rain Light Rain
10:15 PM 43.3 °F 40.7 °F 41.7 °F 94% 29.93 in 7.0 mi WNW 4.6 mph - 0.03 in Rain Rain
10:35 PM 42.8 °F 37.5 °F 41.4 °F 95% 29.93 in 7.0 mi WNW 9.2 mph 16.1 mph 0.05 in Rain Rain
10:55 PM 42.1 °F 38.4 °F 39.9 °F 92% 29.94 in 5.0 mi WNW 5.8 mph - 0.09 in Rain Rain
11:15 PM 41.9 °F 40.0 °F 39.9 °F 93% 29.94 in 5.0 mi West 3.5 mph - 0.04 in Rain Rain
11:35 PM 41.9 °F - 40.1 °F 93% 29.94 in 7.0 mi Calm Calm - 0.07 in Rain Rain
11:55 PM 41.7 °F 39.8 °F 40.1 °F 94% 29.93 in 10.0 mi SSE 3.5 mph - 0.09 in Rain Light Rain